GW1356 Weather Reports


time (UTC)temp
C
wind
direction
speed
KPH
gust
KPH
rain 1hr
cm
rain 24hr
cm
rain mn
cm
humidity
%
barometer
mb
20260906083003 30 200 0.0 6.4 0.00 0.00 0.00 42 1025.0
20260906081554 29 251 1.6 4.8 0.00 0.00 0.00 43 1025.0
20260906080006 28 248 0.0 4.8 0.00 0.00 0.00 44 1025.0
20260906074515 27 279 1.6 9.7 0.00 0.00 0.00 47 1025.1
20260906073027 26 195 4.8 11.3 0.00 0.00 0.00 48 1025.2
20260906071525 26 195 3.2 12.9 0.00 0.00 0.00 50 1025.1
20260906070032 26 161 1.6 11.3 0.00 0.00 0.00 51 1024.8
20260906064538 25 145 1.6 6.4 0.00 0.00 0.00 51 1024.6
20260906063051 25 181 1.6 6.4 0.00 0.00 0.00 53 1024.3
20260906061559 25 198 1.6 6.4 0.00 0.00 0.00 55 1024.2
20260906060008 23 209 1.6 6.4 0.00 0.00 0.00 56 1024.1
20260906054514 24 227 0.0 3.2 0.00 0.00 0.00 55 1024.1
20260906053016 23 219 3.2 4.8 0.00 0.00 0.00 54 1024.0
20260906051526 23 31 0.0 0.0 0.00 0.00 0.00 57 1024.0
20260906050047 22 31 0.0 0.0 0.00 0.00 0.00 59 1023.8
20260906044505 21 31 0.0 0.0 0.00 0.00 0.00 61 1023.7
20260906043028 20 31 0.0 3.2 0.00 0.00 0.00 63 1023.6
20260906041518 19 33 4.8 8.0 0.00 0.00 0.00 65 1023.3
20260906040030 20 49 4.8 6.4 0.00 0.00 0.00 64 1023.3
20260906034553 20 46 0.0 3.2 0.00 0.00 0.00 65 1023.3
20260906033045 19 46 3.2 11.3 0.00 0.00 0.00 64 1023.1
20260906031550 19 40 3.2 4.8 0.00 0.00 0.00 64 1023.0
20260906030058 19 44 1.6 4.8 0.00 0.00 0.00 63 1023.1
20260906024504 20 56 1.6 8.0 0.00 0.00 0.00 61 1023.0
20260906023017 20 55 1.6 4.8 0.00 0.00 0.00 60 1022.9
20260906021510 20 43 3.2 4.8 0.00 0.00 0.00 60 1022.9
20260906020024 20 46 3.2 8.0 0.00 0.00 0.00 59 1022.8
20260906014518 21 34 4.8 6.4 0.00 0.00 0.00 59 1022.9
20260906013030 20 58 6.4 12.9 0.00 0.00 0.00 60 1022.9
20260906011536 20 38 6.4 9.7 0.00 0.00 0.00 60 1023.0
20260906010118 21 46 0.0 4.8 0.00 0.00 0.00 60 1023.1
20260906004510 21 46 0.0 0.0 0.00 0.00 0.00 57 1023.0
20260906003036 21 46 0.0 0.0 0.00 0.00 0.00 57 1022.9
20260906001600 21 46 1.6 8.0 0.00 0.00 0.00 57 1022.8
20260906000056 21 51 4.8 6.4 0.00 0.00 0.00 56 1023.0
20260905234512 22 44 0.0 0.0 0.00 0.00 0.00 55 1023.1
20260905233023 22 44 0.0 6.4 0.00 0.00 0.00 53 1023.0
20260905231536 22 49 6.4 8.0 0.00 0.00 0.00 54 1023.1
20260905230042 22 32 0.0 6.4 0.00 0.00 0.00 53 1023.3
20260905224554 22 46 4.8 9.7 0.00 0.00 0.00 53 1023.2
20260905223100 23 50 4.8 8.0 0.00 0.00 0.00 50 1023.2
20260905221511 23 49 3.2 6.4 0.00 0.00 0.00 52 1023.4
20260905220018 23 52 3.2 9.7 0.00 0.00 0.00 53 1023.3
20260905214529 23 32 4.8 9.7 0.00 0.00 0.00 53 1023.2
20260905213036 23 4 6.4 9.7 0.00 0.00 0.00 52 1023.4
20260905211548 23 39 6.4 9.7 0.00 0.00 0.00 54 1023.3
20260905210115 23 39 6.4 9.7 0.00 0.00 0.00 55 1023.4
20260905204506 23 30 6.4 9.7 0.00 0.00 0.00 55 1023.4
20260905203016 23 5 6.4 9.7 0.00 0.00 0.00 55 1023.4
20260905201530 23 36 6.4 11.3 0.00 0.00 0.00 54 1023.5
20260905200101 23 38 4.8 11.3 0.00 0.00 0.00 55 1023.6
20260905194543 23 46 6.4 9.7 0.00 0.00 0.00 54 1023.7
20260905193049 24 37 4.8 9.7 0.00 0.00 0.00 54 1023.7
20260905191502 24 44 4.8 9.7 0.00 0.00 0.00 55 1023.6
20260905190007 25 46 9.7 11.3 0.00 0.00 0.00 53 1023.5
20260905184533 25 48 6.4 9.7 0.00 0.00 0.00 53 1023.5
20260905183037 25 53 6.4 8.0 0.00 0.00 0.00 54 1023.3
20260905181544 25 342 0.0 14.5 0.00 0.00 0.00 53 1023.3
20260905180045 26 50 12.9 17.7 0.00 0.00 0.00 52 1023.1
20260905174603 26 49 9.7 16.1 0.00 0.00 0.00 52 1023.0
20260905173008 26 51 9.7 17.7 0.00 0.00 0.00 51 1022.9
20260905171519 27 25 9.7 14.5 0.00 0.00 0.00 49 1022.7
20260905170028 27 44 11.3 22.5 0.00 0.00 0.00 47 1022.6
20260905164544 28 333 11.3 19.3 0.00 0.00 0.00 46 1022.4
20260905163047 28 359 11.3 19.3 0.00 0.00 0.00 44 1022.4
20260905161547 29 340 11.3 24.1 0.00 0.00 0.00 43 1022.4
20260905160053 30 1 11.3 24.1 0.00 0.00 0.00 44 1022.5
20260905160001 30 335 11.3 24.1 0.00 0.00 0.00 43 1022.5
20260905154507 30 352 12.9 25.7 0.00 0.00 0.00 43 1022.5
20260905153028 31 309 9.7 20.9 0.00 0.00 0.00 43 1022.4
20260905151525 31 314 16.1 25.7 0.00 0.00 0.00 39 1022.5
20260905150039 31 305 11.3 24.1 0.00 0.00 0.00 39 1022.5
20260905144535 32 4 12.9 24.1 0.00 0.00 0.00 38 1022.4
20260905143044 32 326 4.8 19.3 0.00 0.00 0.00 38 1022.4
20260905141547 32 311 6.4 12.9 0.00 0.00 0.00 37 1022.5
20260905140103 32 328 4.8 11.3 0.00 0.00 0.00 35 1022.5
20260905134517 33 28 6.4 14.5 0.00 0.00 0.00 35 1022.7
20260905133018 32 246 8.0 14.5 0.00 0.00 0.00 33 1022.7
20260905131526 32 193 6.4 12.9 0.00 0.00 0.00 32 1022.8
20260905130035 33 207 3.2 14.5 0.00 0.00 0.00 31 1022.9
20260905124540 32 244 1.6 14.5 0.00 0.00 0.00 31 1023.1
20260905123109 32 211 3.2 19.3 0.00 0.00 0.00 33 1023.3
20260905121501 32 221 8.0 11.3 0.00 0.00 0.00 33 1023.4
20260905120012 32 113 6.4 12.9 0.00 0.00 0.00 33 1023.7
20260905114521 32 172 9.7 16.1 0.00 0.00 0.00 34 1023.9
20260905113033 32 46 1.6 16.1 0.00 0.00 0.00 34 1024.0
20260905111538 32 283 3.2 9.7 0.00 0.00 0.00 35 1024.0
20260905110049 32 243 1.6 17.7 0.00 0.00 0.00 34 1024.0
20260905104555 31 168 11.3 19.3 0.00 0.00 0.00 34 1024.2
20260905103008 32 168 1.6 11.3 0.00 0.00 0.00 35 1024.2
20260905101549 31 68 6.4 12.9 0.00 0.00 0.00 38 1024.4
20260905100109 31 255 3.2 9.7 0.00 0.00 0.00 37 1024.6
20260905094507 31 264 3.2 8.0 0.00 0.00 0.00 38 1024.7
20260905093019 31 157 4.8 9.7 0.00 0.00 0.00 39 1024.7
20260905091525 30 139 6.4 11.3 0.00 0.00 0.00 41 1024.8
20260905090037 31 174 1.6 6.4 0.00 0.00 0.00 46 1024.9
20260905084548 30 131 3.2 9.7 0.00 0.00 0.00 49 1025.0